Regional Weather Roundup
Issued by NWS

Home | Current Version | Previous Version | Graphics & Text | Print | Product List | Glossary Off
Versions: 1 2 3 4 5 6 7 8 9 10 11 12 13 14 15 16 17 18 19 20 21 22 23 24 25 26 27 28 29 30 31 32 33 34 35 36 37 38 39 40 41 42 43 44 45 46 47 48 49 50

000
ASUS43 KLMK 241210
RWRKY
KENTUCKY REGIONAL WEATHER ROUNDUP
NATIONAL WEATHER SERVICE LOUISVILLE KY
800 AM EDT MON APR 24 2017

NOTE "FAIR" INDICATES FEW OR NO CLOUDS BELOW 12,000 FEET
WITH NO SIGNIFICANT WEATHER AND/OR OBSTRUCTIONS TO VISIBILITY.

KYZ001>023-026-027-061>063-070>075-241300-
WESTERN AND SOUTH CENTRAL KENTUCKY

CITY           SKY/WX    TMP DP  RH WIND       PRES   REMARKS
PADUCAH        CLEAR     50  40  68 CALM      29.90R
HENDERSON      SUNNY     53  38  56 N7        29.90S
OWENSBORO      MOSUNNY   53  39  59 N7        29.89R
HOPKINSVILLE   MOSUNNY   53  49  87 N7        29.86R
BOWLING GREEN  CLOUDY    55  51  86 NE7       29.87R
GLASGOW        PTSUNNY   54  49  86 NE8       29.86R
$$

KYZ024-025-028>034-038-045-046-053-241300-
NORTH CENTRAL KENTUCKY

CITY           SKY/WX    TMP DP  RH WIND       PRES   REMARKS
LOUISVILLE/SDF MOSUNNY   54  41  61 N6        29.90R
LOUISVILLE/LOU MOSUNNY   53  42  66 NW3       29.90R
FORT KNOX      MOSUNNY   52  41  66 N9        29.87R
$$

KYZ035>037-039>044-047>052-055>060-089>105-241300-
NORTHEAST KENTUCKY

CITY           SKY/WX    TMP DP  RH WIND       PRES   REMARKS
LEXINGTON      CLOUDY    57  44  62 NE10      29.89R
COVINGTON      SUNNY     51  38  60 NE10      29.93R
FRANKFORT      CLOUDY    56  41  57 NE6       29.88R
$$

KYZ054-064>069-076>088-106>120-241300-
SOUTHEAST KENTUCKY

CITY           SKY/WX    TMP DP  RH WIND       PRES   REMARKS
JACKSON        CLOUDY    50  48  93 VRB5      29.87F
LONDON         CLOUDY    52  48  86 NE7       29.86R
SOMERSET       CLOUDY    52  50  93 E6        29.88R
MIDDLESBORO    CLOUDY    53  52  95 CALM      29.84S
MONTICELLO     CLOUDY    53  51  93 N7        29.87R
$$




USA.gov is the U.S. government's official web portal to all federal, state and local government web resources and services.